SCP
0 0 0 0 0 0 0 0 0 0 0 0 0 0 0 0 0 0 0 0 0 0 -0 -0 0 -0 -0 0 0 0 0 0 0 0 0 -0 -0 -0 0 0 0 0 0 0 0 0 0 0 0 0 0 0 0 0
0 0 0 0 0 0 0 0 0 0 0 0 0 0 0 0 0 0 0 0 0 0 0 0 -0 -0 -0 0 0 -0 0 -0 0 0 0 0 -0 -0 -0 0 0 0 0 0 0 0 0 0 0 0 -0 0 0 0
0 0 0 0 0 0 0 0 0 0 0 0 0 0 0 0 0 0 0 0 0 0 0 0 0 0 -0 -0 0 0 -0 0 -0 0 0 0 0 -0 -0 0 0 0 0 0 0 0 0 0 0 0 0 0 0 0
0 0 0 0 0 0 0 0 0 0 0 0 0 0 0 0 0 0 0 0 0 0 0 0 -0 0 0 0 0 0 0 0 0 0 0 -0 0 0 0 -0 0 0 0 0 0 0 0 0 0 0 0 0 0 0
0 0 0 0 0 0 0 0 0 0 0 0 0 0 0 0 0 0 0 0 0 0 0 0 -0 0 0 0 0 -0 0 0 0 -0 0 0 0 -0 -0 -0 -0 -0 0 0 0 0 0 0 0 0 0 0 0 0
0 0 0 0 0 0 0 0 0 0 0 0 0 0 0 0 0 0 0 0 0 0 0 0 0 0 0 0 0 -0 0 0 -0 0 0 -0 0 -0 -0 -0 -0 -0 -0 0 0 0 0 0 0 0 0 -0 0 0
0 0 0 0 0 0 0 0 0 0 0 0 0 0 0 0 0 0 0 0 0 0 0 0 0 0 0 0 0 0 -0 -0 0 0 0 -0 -0 0 -0 -0 0 0 -0 -0 0 0 0 0 0 0 0 0 0 0
0 0 0 0 0 0 0 0 0 0 0 -0 0 0 0 0 0 0 0 0 0 0 0 0 0 0 0 0 0 0 0 -0 0 0 0 0 0 -0 -0 0 0 0 0 0 -0 -0 0 0 0 0 0 0 0 0
0 0 0 0 0 0 0 0 0 -0 -0 -0 -0 0 0 0 0 0 0 0 0 0 0 0 0 0 0 0 0 0 0 0 0 -0 0 0 0 0 0 -0 -0 0 -0 -0 -0 -0 -0 0 0 0 0 0 0 0
0 0 0 0 0 0 0 0 0 -0 -0 -0 0 0 0 0 0 0 0 0 0 0 0 0 0 0 0 0 0 0 0 0 0 -0 -0 -0 0 0 0 0 0 0 0 0 0 -0 -0 0 0 0 0 0 0 0
0 0 0 0 0 0 0 0 0 -0 0 0 0 0 0 0 0 0 0 0 0 0 0 0 0 0 0 0 0 0 0 0 0 0 0 0 -0 0 0 0 0 0 0 0 0 0 0 -0 0 0 0 0 0 0
0 0 0 0 0 0 0 0 0 0 0 0 0 0 0 0 0 0 0 0 0 0 0 0 0 0 0 0 0 0 0 0 0 0 0 0 0 -0 0 -0 0 0 0 0 0 0 0 0 0 0 0 0 0 0
0 0 0 0 0 0 0 0 0 0 0 0 0 0 0 0 -0 -0 -0 0 0 0 0 0 0 0 0 0 0 0 0 0 0 0 0 0 0 0 -0 0 0 0 0 0 0 0 0 0 -0 -0 0 0 0 0
0 0 0 0 0 0 0 0 0 0 0 0 0 0 0 0 0 -0 0 0 0 0 0 0 0 0 0 0 0 0 0 0 0 0 0 0 0 0 0 -0 -0 0 0 0 0 0 0 0 0 0 -0 0 0 0
-0 0 -0 0 -0 -0 0 0 0 0 0 0 0 0 0 0 0 0 -0 -0 -0 0 0 0 0 0 0 0 0 0 0 0 0 0 0 0 0 0 0 -0 -0 0 0 0 0 0 0 0 0 0 0 0 0 -0
-0 0 0 0 0 -0 -0 0 0 0 0 0 0 0 0 0 0 -0 -0 -0 -0 -0 0 0 0 0 -0 0 0 0 0 0 0 0 0 0 0 0 -0 -0 -0 -0 -0 0 0 0 0 0 0 0 0 0 0 -0
0 0 0 0 -0 -0 -0 0 0 0 0 0 0 0 0 0 0 -0 -0 -0 -0 -0 0 -0 -0 -0 -0 -0 -0 0 0 0 0 0 0 0 0 0 0 0 -0 -0 0 -0 0 0 0 0 0 0 0 0 0 0
0 0 0 0 0 0 0 0 0 0 0 0 0 0 0 0 0 0 0 -0 -0 -0 0 0 -0 0 0 0 0 0 0 0 0 0 0 0 0 0 0 -0 -0 -0 0 -0 -0 0 0 0 0 0 0 -0 -0 0
0 0 0 0 0 0 0 0 0 0 0 0 -0 -0 0 0 0 0 0 0 -0 -0 -0 -0 0 0 -0 0 0 0 -0 0 -0 0 0 -0 -0 0 0 -0 -0 0 -0 -0 -0 -0 0 0 0 0 0 0 0 0
0 0 0 0 0 0 0 0 0 0 0 0 0 0 0 0 0 0 0 0 0 -0 0 0 -0 0 0 0 0 0 0 -0 -0 0 0 0 -0 -0 -0 -0 -0 0 0 0 -0 -0 -0 0 0 0 0 0 0 0
0 0 0 0 0 0 0 0 0 0 0 0 0 0 0 0 0 0 0 0 0 0 0 0 0 0 0 0 0 0 0 0 -0 -0 -0 -0 -0 -0 -0 -0 -0 -0 0 0 -0 0 -0 0 0 0 0 0 0 0
0 0 0 0 0 0 0 0 0 0 0 0 0 0 0 0 0 0 0 0 0 0 0 0 0 0 0 0 0 0 0 0 0 0 -0 -0 -0 -0 -0 -0 0 0 0 -0 -0 -0 -0 -0 -0 0 0 0 0 0
0 0 0 0 0 0 0 0 0 0 0 0 0 0 0 0 0 0 0 0 0 0 0 0 0 0 0 0 0 0 0 0 0 0 0 0 0 0 -0 -0 -0 0 0 0 0 0 -0 0 0 -0 -0 -0 0 0
0 0 0 0 0 0 0 0 0 0 0 0 0 0 0 0 0 0 0 0 0 0 0 0 0 0 0 0 0 0 0 0 0 0 0 0 -0 -0 -0 -0 0 0 -0 -0 0 0 0 0 -0 0 0 0 -0 -0
0 0 0 0 0 0 0 0 0 0 0 0 0 0 0 0 0 0 0 0 0 0 0 0 0 0 0 0 0 0 0 0 0 -0 0 0 0 -0 -0 -0 -0 0 0 0 0 0 0 -0 -0 -0 -0 -0 -0 0
0 0 0 0 0 0 0 0 0 0 0 0 0 0 0 0 0 0 0 0 0 0 0 0 0 0 0 0 0 0 0 0 0 0 0 0 0 0 0 0 0 0 0 0 0 0 0 0 0 -0 -0 -0 -0 -0
0 0 0 0 0 0 0 0 0 0 0 0 0 0 0 0 0 0 0 0 0 0 0 0 0 0 0 0 0 0 0 0 0 0 0 0 0 0 0 0 0 0 0 0 0 0 0 0 0 0 0 0 0 0
0 0 0 0 0 0 0 0 0 0 0 0 0 0 0 0 0 0 0 -0 -0 0 0 0 0 0 0 0 0 0 0 0 0 0 0 0 0 0 0 0 0 0 0 0 0 0 0 0 0 0 0 0 0 0
0 0 0 0 0 0 0 0 0 0 0 0 0 0 0 0 0 0 0 0 0 0 0 0 0 0 0 0 0 0 0 0 0 0 0 0 0 0 0 0 0 0 0 0 0 0 0 0 0 0 0 0 0 0
0 0 0 0 0 0 0 0 0 0 0 -0 -0 -0 -0 0 0 0 0 0 0 0 0 0 0 0 0 0 0 0 0 0 0 0 0 0 0 0 0 0 0 0 0 0 0 0 0 0 0 0 0 0 0 0
0 0 0 0 0 0 0 0 0 0 -0 -0 -0 0 0 0 0 0 0 0 0 0 0 0 0 0 0 0 0 0 0 0 0 0 0 0 0 0 0 0 0 0 0 0 0 0 0 0 0 0 0 0 0 0
0 0 0 0 0 0 -0 0 0 0 0 0 -0 0 0 0 0 0 0 0 0 0 0 0 0 0 0 0 0 0 0 0 0 0 0 0 0 0 0 0 0 0 0 0 0 0 0 0 0 0 0 0 0 0
0 0 0 0 0 0 0 0 0 0 0 0 0 0 0 0 0 0 0 0 0 0 0 0 0 0 0 0 0 0 0 0 0 0 0 0 0 0 0 0 0 0 0 0 0 0 0 0 0 0 0 0 0 0
Wind_Speed_500mb
56 55 55 59 62 64 64 66 67 64 62 62 58 48 34 28 27 28 29 19 22 16 65 35 25 45 41 21 7 17 23 8 9 5 2 4 2 4 8 19 27 12 8 6 6 6 8 15 8 12 11 16 39 49
57 57 58 63 67 68 68 67 67 64 63 66 60 48 38 28 25 30 31 28 30 32 58 71 43 25 32 39 24 7 6 5 6 6 3 7 5 7 8 11 22 5 7 5 11 7 2 22 7 27 31 34 36 25
57 60 62 65 69 70 70 67 65 66 71 70 60 44 36 31 27 27 38 35 38 24 52 17 12 40 16 20 22 13 8 3 6 5 4 7 7 7 3 5 6 12 26 7 16 21 35 37 37 32 21 36 33 44
60 64 67 67 69 71 72 70 67 74 76 72 57 44 35 30 28 28 33 25 28 22 10 19 50 36 28 24 21 37 52 30 26 18 7 6 2 17 8 13 3 6 19 21 10 18 53 60 77 68 29 20 16 20
65 66 69 70 70 71 72 71 73 78 82 68 57 42 32 27 25 26 28 15 19 14 10 30 49 15 26 24 19 35 30 33 35 12 6 6 7 6 4 7 8 14 7 6 8 45 15 42 72 65 29 40 37 28
68 69 70 71 72 72 70 70 79 79 75 66 45 34 23 18 15 12 8 1 1 17 16 8 26 26 27 37 23 17 32 34 37 18 11 12 15 8 5 4 9 9 19 37 15 54 43 51 44 59 43 41 25 21
70 71 71 73 74 74 68 70 79 78 68 53 36 27 18 11 9 7 8 10 24 29 9 10 8 14 34 28 29 27 26 33 33 26 10 12 18 28 5 7 15 29 27 18 33 35 53 46 65 65 47 26 23 11
71 71 71 73 75 70 63 74 79 70 61 36 20 18 14 13 9 12 13 14 15 11 10 6 8 12 16 12 14 12 14 16 14 18 10 6 18 10 9 16 27 36 36 30 35 24 38 52 63 53 45 20 15 20
73 70 70 72 74 63 64 75 76 66 56 25 24 25 21 9 6 11 29 31 11 10 8 6 5 6 18 9 15 12 5 5 11 5 9 11 7 10 5 5 25 37 42 35 23 22 33 45 52 50 52 35 23 18
73 70 69 71 71 58 65 75 74 64 50 24 22 11 6 8 34 25 8 3 4 7 9 6 2 7 8 5 6 14 10 6 5 3 17 10 16 44 50 51 46 46 53 42 35 22 27 42 61 57 62 42 32 33
73 71 67 69 65 52 66 73 71 62 49 31 16 10 28 23 10 6 6 6 5 5 9 10 18 18 9 4 4 11 5 6 5 7 9 6 2 16 55 64 68 55 41 59 57 55 56 28 55 53 51 55 46 46
72 70 66 66 52 54 66 67 66 54 42 34 28 24 20 11 6 7 7 8 5 7 15 10 31 26 6 9 5 7 5 6 6 15 6 5 8 57 63 61 66 60 50 38 53 56 51 43 45 54 52 53 52 42
70 70 64 62 44 60 68 64 56 42 36 16 8 7 11 9 10 8 10 7 9 11 22 45 20 5 5 12 3 4 4 5 16 2 4 6 30 53 59 61 62 54 44 33 38 53 52 42 53 43 40 38 55 53
70 68 64 52 47 66 66 56 41 31 15 7 8 12 4 8 3 6 11 10 17 17 41 36 15 5 7 2 3 7 6 6 6 7 6 11 53 56 40 62 59 57 45 34 32 38 58 42 33 34 57 39 49 53
69 65 50 36 61 58 50 46 25 17 7 6 6 3 4 13 33 35 27 27 35 41 44 16 3 9 5 7 6 7 12 7 8 7 7 43 67 61 38 70 62 41 32 40 36 25 24 45 41 44 46 42 55 60
65 63 32 63 61 53 47 40 9 9 8 6 8 6 16 18 14 31 29 23 35 40 37 12 6 7 8 4 11 6 14 7 8 9 48 44 54 50 49 79 78 52 10 27 34 25 22 22 24 19 23 35 52 59
61 53 62 62 62 53 37 16 4 8 8 7 8 23 22 24 8 21 32 24 37 27 5 5 8 5 4 6 8 3 6 8 29 41 59 48 37 45 58 55 91 80 22 9 15 35 35 27 34 41 37 35 35 43
59 59 57 52 53 53 23 8 6 8 10 18 15 24 23 16 22 17 17 25 23 25 19 4 2 5 1 4 8 6 21 43 41 17 40 45 46 46 52 49 74 87 68 53 37 18 18 30 40 43 48 46 28 27
59 58 53 31 32 34 10 8 12 8 11 23 24 30 22 24 23 17 12 23 20 18 6 8 6 6 5 5 15 29 37 47 51 35 29 48 55 50 54 57 55 67 80 79 62 40 33 32 21 18 13 15 24 9
49 47 27 18 29 11 11 12 16 11 11 16 27 31 34 25 17 17 9 14 7 4 6 1 4 10 10 26 28 34 41 30 39 47 36 32 49 57 63 52 54 58 65 58 69 64 58 54 56 45 37 38 48 23
46 35 38 29 34 23 14 12 12 16 18 17 24 31 24 25 21 19 11 9 3 4 5 2 9 15 21 23 26 33 33 42 29 31 35 37 32 44 51 59 53 54 55 62 53 46 58 52 47 46 53 57 50 39
42 23 32 18 11 13 19 24 17 12 16 25 34 37 28 13 17 28 17 7 6 10 5 3 9 12 20 21 31 28 33 41 30 32 32 33 28 40 51 49 54 56 61 52 51 53 46 37 46 42 40 41 42 45
11 11 15 11 13 12 16 21 15 22 8 9 14 6 5 8 23 31 7 10 17 20 14 10 7 10 11 14 20 19 26 38 24 43 41 32 37 38 39 48 51 57 56 56 46 45 46 45 44 33 34 47 51 43
11 9 9 11 17 10 11 12 13 8 8 6 3 7 10 17 33 19 15 16 5 13 9 3 1 10 8 11 20 21 21 37 22 21 39 32 30 20 23 32 41 48 49 47 48 43 50 43 40 51 41 37 44 52
7 14 11 13 14 12 9 7 9 6 9 6 7 9 4 7 4 15 18 15 18 25 19 13 4 4 7 7 6 11 22 26 29 22 27 26 32 14 19 29 29 30 39 47 41 40 36 47 49 44 44 47 47 43
12 13 16 12 8 10 8 7 11 12 16 14 8 7 3 2 6 8 6 16 25 18 10 13 11 6 7 10 14 11 19 25 25 24 26 30 24 22 23 24 21 20 24 32 34 30 31 35 41 43 41 37 43 43
12 14 21 25 14 15 12 20 26 9 9 8 6 6 2 5 8 5 6 10 14 20 10 3 7 11 15 14 7 6 12 18 16 24 23 25 13 18 14 12 15 14 21 12 16 29 26 26 32 31 28 27 30 35
22 14 17 16 18 29 16 17 10 7 6 6 8 10 12 12 7 10 5 11 17 7 4 13 18 19 19 13 7 8 13 14 19 16 11 11 4 7 22 12 16 13 16 21 14 7 20 25 31 24 22 21 16 25
18 19 22 20 26 17 26 31 32 42 40 32 11 13 24 30 28 26 17 19 17 13 18 18 4 9 11 14 12 10 10 15 17 23 26 35 23 6 15 24 17 12 14 15 18 15 11 11 12 9 10 17 19 16
17 28 19 18 17 16 30 31 32 45 50 50 50 50 41 41 44 23 22 12 14 19 5 4 5 3 3 7 4 3 5 4 1 2 4 11 25 13 7 10 20 19 9 7 10 10 5 2 3 8 12 11 15 15
13 24 21 17 13 36 47 40 36 38 37 42 44 39 32 20 21 8 2 7 9 11 6 23 23 17 13 10 11 9 2 6 12 10 6 17 7 4 4 9 13 14 10 5 1 10 7 4 8 8 8 9 11 11
19 22 22 23 21 41 34 26 29 35 38 36 36 33 16 6 11 12 20 16 9 9 9 17 21 20 10 11 7 4 4 11 13 11 6 7 13 21 24 7 4 4 10 10 9 5 5 6 6 8 11 13 13 14
31 33 31 28 19 9 20 21 18 25 22 26 21 21 19 14 8 7 12 19 26 21 10 11 12 9 8 6 7 9 8 11 14 15 12 10 7 7 11 13 6 4 7 6 4 3 3 4 6 8 11 13 15 16
Wind_Direction_500mb
349 350 352 346 343 340 340 340 341 343 345 346 343 337 333 337 336 328 324 320 300 286 293 290 304 311 304 285 292 316 335 13 306 140 236 297 45 162 334 276 292 297 317 182 164 109 195 142 290 216 194 168 171 185
348 348 352 348 343 340 338 339 339 341 341 341 337 332 328 317 320 324 318 321 318 289 278 308 303 277 268 270 259 248 191 315 307 316 320 326 223 126 202 265 346 2 4 249 27 221 210 69 40 321 254 191 161 160
349 345 348 349 346 343 340 340 341 341 340 337 334 327 316 315 310 300 307 324 326 301 309 303 313 334 287 268 267 248 250 273 300 323 315 286 265 330 312 322 292 250 355 29 345 359 340 345 7 333 191 159 176 181
347 344 343 346 346 344 341 340 342 342 339 336 333 328 317 307 303 305 305 332 310 307 287 290 318 336 321 251 252 228 252 292 285 282 247 259 271 354 359 345 274 302 323 329 292 326 344 8 353 343 19 46 117 156
347 344 342 342 344 343 340 338 342 343 340 338 335 327 315 304 296 303 315 319 298 287 290 296 321 326 354 351 248 260 248 262 291 298 205 282 288 118 209 213 200 160 252 336 285 331 336 307 329 336 337 2 5 20
346 345 344 342 343 343 341 338 342 344 342 341 339 341 328 307 298 328 319 174 181 352 313 302 306 299 332 321 283 277 226 240 249 251 275 226 184 143 270 299 287 77 200 250 292 294 301 317 346 355 1 17 0 17
344 345 345 343 344 343 343 340 343 345 345 342 339 346 342 332 286 203 232 261 308 316 273 286 294 314 330 345 319 291 283 273 247 250 240 263 273 171 237 237 239 267 249 287 264 307 317 319 323 332 345 17 74 104
342 343 345 343 344 345 345 343 344 346 347 343 336 355 348 341 323 294 286 264 281 289 257 282 282 296 338 317 312 304 309 297 257 228 250 237 280 229 244 228 259 283 286 267 267 308 300 291 308 333 348 360 19 46
340 342 343 343 344 346 346 344 345 347 349 345 330 316 297 283 304 289 299 293 287 228 289 256 252 275 323 303 291 315 301 296 301 242 234 241 234 232 223 236 231 261 267 273 260 256 285 294 294 313 321 312 334 298
338 340 341 342 343 344 346 345 346 348 352 359 346 334 289 333 313 311 320 227 260 227 236 255 302 260 279 278 308 348 343 312 315 15 304 219 241 250 359 356 336 309 288 289 287 203 235 260 270 286 304 296 301 312
336 339 340 340 341 340 346 346 346 349 359 6 349 301 299 314 315 265 280 233 232 246 232 277 292 319 282 322 335 5 332 317 302 0 325 304 27 12 348 335 326 312 319 269 263 268 235 219 252 266 279 314 275 273
332 337 340 338 340 338 344 345 345 346 343 322 310 308 325 327 296 344 10 353 340 300 310 302 326 330 11 34 16 6 331 326 281 355 298 271 12 345 334 325 319 309 294 289 262 260 276 229 240 260 265 273 307 276
329 334 339 334 332 338 340 342 338 335 333 328 318 323 338 313 7 8 356 320 307 288 299 321 325 10 82 39 24 344 313 274 322 295 290 289 310 318 321 325 316 307 285 277 269 257 258 239 223 227 254 257 279 296
325 331 334 326 329 334 333 331 331 337 333 310 313 331 16 327 20 257 254 248 288 283 323 330 346 28 44 325 41 323 322 288 321 319 316 299 319 323 323 333 322 307 286 267 249 259 242 239 222 216 232 226 263 273
321 329 332 332 323 326 331 332 329 321 292 277 294 307 297 278 300 331 356 334 350 338 335 347 22 9 31 39 21 326 336 339 341 303 282 307 314 335 327 344 339 329 278 258 245 258 266 236 212 218 223 228 229 255
320 329 321 330 330 335 336 330 322 294 261 239 229 218 264 287 343 329 351 343 351 2 342 51 23 6 26 24 8 10 321 337 300 287 307 313 324 336 352 1 358 3 256 247 239 235 250 240 226 238 241 249 251 265
317 321 329 332 330 336 339 334 317 240 249 249 244 270 280 286 294 323 340 354 357 5 332 351 33 358 355 6 356 304 295 266 288 312 335 348 348 355 360 1 8 6 64 108 208 222 227 232 241 247 251 262 261 264
311 319 328 330 325 337 340 262 264 262 252 247 249 263 290 318 307 317 340 354 20 354 337 347 30 45 42 302 295 246 278 314 324 294 1 14 19 31 26 23 23 20 40 65 65 129 188 228 237 242 247 256 275 285
311 317 327 334 334 332 293 264 221 271 278 296 309 297 306 304 300 300 358 354 26 5 11 16 29 0 318 267 278 309 354 345 352 341 11 24 33 30 28 32 34 39 44 42 47 70 80 79 118 116 159 162 188 227
306 316 309 327 323 291 272 258 217 232 258 257 289 298 288 282 307 301 353 290 44 56 54 57 191 265 286 328 335 348 343 4 2 338 353 26 31 37 36 26 31 33 39 47 43 52 65 74 74 80 90 140 160 33
312 328 308 304 288 254 258 274 255 255 273 257 261 280 284 294 284 302 301 340 316 191 169 221 16 328 329 334 327 347 350 351 355 331 20 18 31 36 37 34 39 37 39 38 42 51 64 65 78 70 86 100 119 118
309 319 314 331 245 241 245 235 236 251 287 279 277 273 278 268 269 272 253 180 235 254 283 30 346 346 360 354 346 340 350 358 360 4 28 30 33 43 44 40 30 26 35 45 49 51 56 74 69 70 73 81 82 86
309 315 298 247 250 245 259 240 247 234 232 270 287 295 265 269 284 290 181 208 231 231 229 248 320 345 28 356 353 3 360 3 4 354 1 35 30 33 39 39 45 42 41 44 50 61 56 57 62 75 79 75 76 77
305 256 247 240 222 248 249 241 226 225 271 282 226 257 275 279 287 285 268 250 133 149 260 244 278 316 324 5 9 8 29 4 350 341 10 3 30 25 35 43 44 43 39 45 44 50 55 61 58 62 82 91 82 71
246 230 221 254 250 250 233 233 235 218 235 239 236 254 259 282 314 290 285 283 180 183 184 245 305 352 273 317 29 18 6 359 1 9 343 9 14 57 46 44 37 41 45 40 46 50 52 62 64 67 70 74 91 82
237 230 201 222 229 231 222 220 210 223 236 229 240 224 249 315 253 258 253 39 132 148 184 212 233 238 316 6 22 20 2 5 350 349 1 355 3 15 29 33 14 19 37 48 46 51 57 71 64 63 72 79 78 76
237 241 229 224 247 246 257 251 249 240 217 203 162 141 178 243 244 242 89 75 163 158 166 279 322 328 313 298 251 324 316 326 341 332 321 314 346 1 3 29 46 42 21 41 63 65 73 71 76 77 69 69 81 82
236 252 226 226 230 242 262 262 255 264 224 227 200 205 191 199 232 268 141 144 210 178 285 304 294 286 297 288 248 271 345 357 5 351 321 316 299 53 37 32 39 32 37 30 29 101 101 88 87 76 66 64 103 91
230 224 222 239 240 230 239 245 252 253 262 256 233 225 244 251 254 268 240 222 209 248 271 274 46 342 303 319 142 102 56 26 24 37 37 31 25 160 35 40 27 30 27 22 35 35 67 93 94 97 63 76 86 123
238 211 218 230 234 239 241 245 238 231 236 250 262 273 274 243 244 258 289 281 272 279 228 344 319 144 96 85 153 163 144 134 323 27 101 74 29 40 357 22 11 4 351 37 60 24 355 129 167 117 138 136 133 132
241 213 214 225 245 253 263 260 233 241 260 270 267 264 261 244 273 29 118 24 348 353 323 132 116 107 93 73 72 97 168 318 296 277 254 213 196 143 111 64 29 12 352 320 177 68 316 32 106 104 88 88 94 100
208 223 229 249 243 250 260 253 234 242 250 264 277 255 277 17 21 21 334 353 355 32 80 91 84 75 48 28 34 24 212 252 294 331 295 276 260 266 258 230 34 19 45 65 55 61 81 101 91 105 99 95 85 80
230 243 254 262 265 254 250 233 267 278 272 265 253 253 244 236 174 135 82 118 123 128 94 333 298 229 224 209 197 253 261 275 297 305 301 300 293 261 228 209 217 209 180 172 187 183 114 118 111 105 107 105 101 95
Wind_Speed_850mb
56 55 55 59 62 64 64 66 67 64 62 62 58 48 34 28 27 28 29 19 22 16 65 35 25 45 41 21 7 17 23 8 9 5 2 4 2 4 8 19 27 12 8 6 6 6 8 15 8 12 11 16 39 49
57 57 58 63 67 68 68 67 67 64 63 66 60 48 38 28 25 30 31 28 30 32 58 71 43 25 32 39 24 7 6 5 6 6 3 7 5 7 8 11 22 5 7 5 11 7 2 22 7 27 31 34 36 25
57 60 62 65 69 70 70 67 65 66 71 70 60 44 36 31 27 27 38 35 38 24 52 17 12 40 16 20 22 13 8 3 6 5 4 7 7 7 3 5 6 12 26 7 16 21 35 37 37 32 21 36 33 44
60 64 67 67 69 71 72 70 67 74 76 72 57 44 35 30 28 28 33 25 28 22 10 19 50 36 28 24 21 37 52 30 26 18 7 6 2 17 8 13 3 6 19 21 10 18 53 60 77 68 29 20 16 20
65 66 69 70 70 71 72 71 73 78 82 68 57 42 32 27 25 26 28 15 19 14 10 30 49 15 26 24 19 35 30 33 35 12 6 6 7 6 4 7 8 14 7 6 8 45 15 42 72 65 29 40 37 28
68 69 70 71 72 72 70 70 79 79 75 66 45 34 23 18 15 12 8 1 1 17 16 8 26 26 27 37 23 17 32 34 37 18 11 12 15 8 5 4 9 9 19 37 15 54 43 51 44 59 43 41 25 21
70 71 71 73 74 74 68 70 79 78 68 53 36 27 18 11 9 7 8 10 24 29 9 10 8 14 34 28 29 27 26 33 33 26 10 12 18 28 5 7 15 29 27 18 33 35 53 46 65 65 47 26 23 11
71 71 71 73 75 70 63 74 79 70 61 36 20 18 14 13 9 12 13 14 15 11 10 6 8 12 16 12 14 12 14 16 14 18 10 6 18 10 9 16 27 36 36 30 35 24 38 52 63 53 45 20 15 20
73 70 70 72 74 63 64 75 76 66 56 25 24 25 21 9 6 11 29 31 11 10 8 6 5 6 18 9 15 12 5 5 11 5 9 11 7 10 5 5 25 37 42 35 23 22 33 45 52 50 52 35 23 18
73 70 69 71 71 58 65 75 74 64 50 24 22 11 6 8 34 25 8 3 4 7 9 6 2 7 8 5 6 14 10 6 5 3 17 10 16 44 50 51 46 46 53 42 35 22 27 42 61 57 62 42 32 33
73 71 67 69 65 52 66 73 71 62 49 31 16 10 28 23 10 6 6 6 5 5 9 10 18 18 9 4 4 11 5 6 5 7 9 6 2 16 55 64 68 55 41 59 57 55 56 28 55 53 51 55 46 46
72 70 66 66 52 54 66 67 66 54 42 34 28 24 20 11 6 7 7 8 5 7 15 10 31 26 6 9 5 7 5 6 6 15 6 5 8 57 63 61 66 60 50 38 53 56 51 43 45 54 52 53 52 42
70 70 64 62 44 60 68 64 56 42 36 16 8 7 11 9 10 8 10 7 9 11 22 45 20 5 5 12 3 4 4 5 16 2 4 6 30 53 59 61 62 54 44 33 38 53 52 42 53 43 40 38 55 53
70 68 64 52 47 66 66 56 41 31 15 7 8 12 4 8 3 6 11 10 17 17 41 36 15 5 7 2 3 7 6 6 6 7 6 11 53 56 40 62 59 57 45 34 32 38 58 42 33 34 57 39 49 53
69 65 50 36 61 58 50 46 25 17 7 6 6 3 4 13 33 35 27 27 35 41 44 16 3 9 5 7 6 7 12 7 8 7 7 43 67 61 38 70 62 41 32 40 36 25 24 45 41 44 46 42 55 60
65 63 32 63 61 53 47 40 9 9 8 6 8 6 16 18 14 31 29 23 35 40 37 12 6 7 8 4 11 6 14 7 8 9 48 44 54 50 49 79 78 52 10 27 34 25 22 22 24 19 23 35 52 59
61 53 62 62 62 53 37 16 4 8 8 7 8 23 22 24 8 21 32 24 37 27 5 5 8 5 4 6 8 3 6 8 29 41 59 48 37 45 58 55 91 80 22 9 15 35 35 27 34 41 37 35 35 43
59 59 57 52 53 53 23 8 6 8 10 18 15 24 23 16 22 17 17 25 23 25 19 4 2 5 1 4 8 6 21 43 41 17 40 45 46 46 52 49 74 87 68 53 37 18 18 30 40 43 48 46 28 27
59 58 53 31 32 34 10 8 12 8 11 23 24 30 22 24 23 17 12 23 20 18 6 8 6 6 5 5 15 29 37 47 51 35 29 48 55 50 54 57 55 67 80 79 62 40 33 32 21 18 13 15 24 9
49 47 27 18 29 11 11 12 16 11 11 16 27 31 34 25 17 17 9 14 7 4 6 1 4 10 10 26 28 34 41 30 39 47 36 32 49 57 63 52 54 58 65 58 69 64 58 54 56 45 37 38 48 23
46 35 38 29 34 23 14 12 12 16 18 17 24 31 24 25 21 19 11 9 3 4 5 2 9 15 21 23 26 33 33 42 29 31 35 37 32 44 51 59 53 54 55 62 53 46 58 52 47 46 53 57 50 39
42 23 32 18 11 13 19 24 17 12 16 25 34 37 28 13 17 28 17 7 6 10 5 3 9 12 20 21 31 28 33 41 30 32 32 33 28 40 51 49 54 56 61 52 51 53 46 37 46 42 40 41 42 45
11 11 15 11 13 12 16 21 15 22 8 9 14 6 5 8 23 31 7 10 17 20 14 10 7 10 11 14 20 19 26 38 24 43 41 32 37 38 39 48 51 57 56 56 46 45 46 45 44 33 34 47 51 43
11 9 9 11 17 10 11 12 13 8 8 6 3 7 10 17 33 19 15 16 5 13 9 3 1 10 8 11 20 21 21 37 22 21 39 32 30 20 23 32 41 48 49 47 48 43 50 43 40 51 41 37 44 52
7 14 11 13 14 12 9 7 9 6 9 6 7 9 4 7 4 15 18 15 18 25 19 13 4 4 7 7 6 11 22 26 29 22 27 26 32 14 19 29 29 30 39 47 41 40 36 47 49 44 44 47 47 43
12 13 16 12 8 10 8 7 11 12 16 14 8 7 3 2 6 8 6 16 25 18 10 13 11 6 7 10 14 11 19 25 25 24 26 30 24 22 23 24 21 20 24 32 34 30 31 35 41 43 41 37 43 43
12 14 21 25 14 15 12 20 26 9 9 8 6 6 2 5 8 5 6 10 14 20 10 3 7 11 15 14 7 6 12 18 16 24 23 25 13 18 14 12 15 14 21 12 16 29 26 26 32 31 28 27 30 35
22 14 17 16 18 29 16 17 10 7 6 6 8 10 12 12 7 10 5 11 17 7 4 13 18 19 19 13 7 8 13 14 19 16 11 11 4 7 22 12 16 13 16 21 14 7 20 25 31 24 22 21 16 25
18 19 22 20 26 17 26 31 32 42 40 32 11 13 24 30 28 26 17 19 17 13 18 18 4 9 11 14 12 10 10 15 17 23 26 35 23 6 15 24 17 12 14 15 18 15 11 11 12 9 10 17 19 16
17 28 19 18 17 16 30 31 32 45 50 50 50 50 41 41 44 23 22 12 14 19 5 4 5 3 3 7 4 3 5 4 1 2 4 11 25 13 7 10 20 19 9 7 10 10 5 2 3 8 12 11 15 15
13 24 21 17 13 36 47 40 36 38 37 42 44 39 32 20 21 8 2 7 9 11 6 23 23 17 13 10 11 9 2 6 12 10 6 17 7 4 4 9 13 14 10 5 1 10 7 4 8 8 8 9 11 11
19 22 22 23 21 41 34 26 29 35 38 36 36 33 16 6 11 12 20 16 9 9 9 17 21 20 10 11 7 4 4 11 13 11 6 7 13 21 24 7 4 4 10 10 9 5 5 6 6 8 11 13 13 14
31 33 31 28 19 9 20 21 18 25 22 26 21 21 19 14 8 7 12 19 26 21 10 11 12 9 8 6 7 9 8 11 14 15 12 10 7 7 11 13 6 4 7 6 4 3 3 4 6 8 11 13 15 16
Wind_Direction_850mb
349 350 352 346 343 340 340 340 341 343 345 346 343 337 333 337 336 328 324 320 300 286 293 290 304 311 304 285 292 316 335 13 306 140 236 297 45 162 334 276 292 297 317 182 164 109 195 142 290 216 194 168 171 185
348 348 352 348 343 340 338 339 339 341 341 341 337 332 328 317 320 324 318 321 318 289 278 308 303 277 268 270 259 248 191 315 307 316 320 326 223 126 202 265 346 2 4 249 27 221 210 69 40 321 254 191 161 160
349 345 348 349 346 343 340 340 341 341 340 337 334 327 316 315 310 300 307 324 326 301 309 303 313 334 287 268 267 248 250 273 300 323 315 286 265 330 312 322 292 250 355 29 345 359 340 345 7 333 191 159 176 181
347 344 343 346 346 344 341 340 342 342 339 336 333 328 317 307 303 305 305 332 310 307 287 290 318 336 321 251 252 228 252 292 285 282 247 259 271 354 359 345 274 302 323 329 292 326 344 8 353 343 19 46 117 156
347 344 342 342 344 343 340 338 342 343 340 338 335 327 315 304 296 303 315 319 298 287 290 296 321 326 354 351 248 260 248 262 291 298 205 282 288 118 209 213 200 160 252 336 285 331 336 307 329 336 337 2 5 20
346 345 344 342 343 343 341 338 342 344 342 341 339 341 328 307 298 328 319 174 181 352 313 302 306 299 332 321 283 277 226 240 249 251 275 226 184 143 270 299 287 77 200 250 292 294 301 317 346 355 1 17 0 17
344 345 345 343 344 343 343 340 343 345 345 342 339 346 342 332 286 203 232 261 308 316 273 286 294 314 330 345 319 291 283 273 247 250 240 263 273 171 237 237 239 267 249 287 264 307 317 319 323 332 345 17 74 104
342 343 345 343 344 345 345 343 344 346 347 343 336 355 348 341 323 294 286 264 281 289 257 282 282 296 338 317 312 304 309 297 257 228 250 237 280 229 244 228 259 283 286 267 267 308 300 291 308 333 348 360 19 46
340 342 343 343 344 346 346 344 345 347 349 345 330 316 297 283 304 289 299 293 287 228 289 256 252 275 323 303 291 315 301 296 301 242 234 241 234 232 223 236 231 261 267 273 260 256 285 294 294 313 321 312 334 298
338 340 341 342 343 344 346 345 346 348 352 359 346 334 289 333 313 311 320 227 260 227 236 255 302 260 279 278 308 348 343 312 315 15 304 219 241 250 359 356 336 309 288 289 287 203 235 260 270 286 304 296 301 312
336 339 340 340 341 340 346 346 346 349 359 6 349 301 299 314 315 265 280 233 232 246 232 277 292 319 282 322 335 5 332 317 302 0 325 304 27 12 348 335 326 312 319 269 263 268 235 219 252 266 279 314 275 273
332 337 340 338 340 338 344 345 345 346 343 322 310 308 325 327 296 344 10 353 340 300 310 302 326 330 11 34 16 6 331 326 281 355 298 271 12 345 334 325 319 309 294 289 262 260 276 229 240 260 265 273 307 276
329 334 339 334 332 338 340 342 338 335 333 328 318 323 338 313 7 8 356 320 307 288 299 321 325 10 82 39 24 344 313 274 322 295 290 289 310 318 321 325 316 307 285 277 269 257 258 239 223 227 254 257 279 296
325 331 334 326 329 334 333 331 331 337 333 310 313 331 16 327 20 257 254 248 288 283 323 330 346 28 44 325 41 323 322 288 321 319 316 299 319 323 323 333 322 307 286 267 249 259 242 239 222 216 232 226 263 273
321 329 332 332 323 326 331 332 329 321 292 277 294 307 297 278 300 331 356 334 350 338 335 347 22 9 31 39 21 326 336 339 341 303 282 307 314 335 327 344 339 329 278 258 245 258 266 236 212 218 223 228 229 255
320 329 321 330 330 335 336 330 322 294 261 239 229 218 264 287 343 329 351 343 351 2 342 51 23 6 26 24 8 10 321 337 300 287 307 313 324 336 352 1 358 3 256 247 239 235 250 240 226 238 241 249 251 265
317 321 329 332 330 336 339 334 317 240 249 249 244 270 280 286 294 323 340 354 357 5 332 351 33 358 355 6 356 304 295 266 288 312 335 348 348 355 360 1 8 6 64 108 208 222 227 232 241 247 251 262 261 264
311 319 328 330 325 337 340 262 264 262 252 247 249 263 290 318 307 317 340 354 20 354 337 347 30 45 42 302 295 246 278 314 324 294 1 14 19 31 26 23 23 20 40 65 65 129 188 228 237 242 247 256 275 285
311 317 327 334 334 332 293 264 221 271 278 296 309 297 306 304 300 300 358 354 26 5 11 16 29 0 318 267 278 309 354 345 352 341 11 24 33 30 28 32 34 39 44 42 47 70 80 79 118 116 159 162 188 227
306 316 309 327 323 291 272 258 217 232 258 257 289 298 288 282 307 301 353 290 44 56 54 57 191 265 286 328 335 348 343 4 2 338 353 26 31 37 36 26 31 33 39 47 43 52 65 74 74 80 90 140 160 33
312 328 308 304 288 254 258 274 255 255 273 257 261 280 284 294 284 302 301 340 316 191 169 221 16 328 329 334 327 347 350 351 355 331 20 18 31 36 37 34 39 37 39 38 42 51 64 65 78 70 86 100 119 118
309 319 314 331 245 241 245 235 236 251 287 279 277 273 278 268 269 272 253 180 235 254 283 30 346 346 360 354 346 340 350 358 360 4 28 30 33 43 44 40 30 26 35 45 49 51 56 74 69 70 73 81 82 86
309 315 298 247 250 245 259 240 247 234 232 270 287 295 265 269 284 290 181 208 231 231 229 248 320 345 28 356 353 3 360 3 4 354 1 35 30 33 39 39 45 42 41 44 50 61 56 57 62 75 79 75 76 77
305 256 247 240 222 248 249 241 226 225 271 282 226 257 275 279 287 285 268 250 133 149 260 244 278 316 324 5 9 8 29 4 350 341 10 3 30 25 35 43 44 43 39 45 44 50 55 61 58 62 82 91 82 71
246 230 221 254 250 250 233 233 235 218 235 239 236 254 259 282 314 290 285 283 180 183 184 245 305 352 273 317 29 18 6 359 1 9 343 9 14 57 46 44 37 41 45 40 46 50 52 62 64 67 70 74 91 82
237 230 201 222 229 231 222 220 210 223 236 229 240 224 249 315 253 258 253 39 132 148 184 212 233 238 316 6 22 20 2 5 350 349 1 355 3 15 29 33 14 19 37 48 46 51 57 71 64 63 72 79 78 76
237 241 229 224 247 246 257 251 249 240 217 203 162 141 178 243 244 242 89 75 163 158 166 279 322 328 313 298 251 324 316 326 341 332 321 314 346 1 3 29 46 42 21 41 63 65 73 71 76 77 69 69 81 82
236 252 226 226 230 242 262 262 255 264 224 227 200 205 191 199 232 268 141 144 210 178 285 304 294 286 297 288 248 271 345 357 5 351 321 316 299 53 37 32 39 32 37 30 29 101 101 88 87 76 66 64 103 91
230 224 222 239 240 230 239 245 252 253 262 256 233 225 244 251 254 268 240 222 209 248 271 274 46 342 303 319 142 102 56 26 24 37 37 31 25 160 35 40 27 30 27 22 35 35 67 93 94 97 63 76 86 123
238 211 218 230 234 239 241 245 238 231 236 250 262 273 274 243 244 258 289 281 272 279 228 344 319 144 96 85 153 163 144 134 323 27 101 74 29 40 357 22 11 4 351 37 60 24 355 129 167 117 138 136 133 132
241 213 214 225 245 253 263 260 233 241 260 270 267 264 261 244 273 29 118 24 348 353 323 132 116 107 93 73 72 97 168 318 296 277 254 213 196 143 111 64 29 12 352 320 177 68 316 32 106 104 88 88 94 100
208 223 229 249 243 250 260 253 234 242 250 264 277 255 277 17 21 21 334 353 355 32 80 91 84 75 48 28 34 24 212 252 294 331 295 276 260 266 258 230 34 19 45 65 55 61 81 101 91 105 99 95 85 80
230 243 254 262 265 254 250 233 267 278 272 265 253 253 244 236 174 135 82 118 123 128 94 333 298 229 224 209 197 253 261 275 297 305 301 300 293 261 228 209 217 209 180 172 187 183 114 118 111 105 107 105 101 95